Weather History for Middletown, OH

Change the Weather History Date:

Wednesday, September 26, 2012

  Actual Average (KDAY) Record (KDAY)
Temperature  
Mean Temperature 66 °F 61 °F  
Max Temperature 72 °F 72 °F 96 °F (1900)
Min Temperature 60 °F 51 °F 35 °F (1928)
Degree Days  
Heating Degree Days 0 5  
Month to date heating degree days 63  
Since 1 July heating degree days 65  
Cooling Degree Days 1 2  
Month to date cooling degree days 94  
Year to date cooling degree days 876  
Growing Degree Days 16 (Base 50)    
Moisture  
Dew Point 65 °F    
Average Humidity 96    
Maximum Humidity 100    
Minimum Humidity 81    
Precipitation  
Precipitation 0.00 in 0.11 in 3.10 in (2011)
Month to date precipitation 2.88  
Year to date precipitation 31.19  
Snow  
Snow 0.00 in 0.00 in - ()
Month to date snowfall 0.0  
Since 1 July snowfall 0.0  
Since 1 September snowfall 0.0  
Snow Depth -    
Sea Level Pressure  
Sea Level Pressure 30.05 in    
Wind  
Wind Speed 5 mph (SW)    
Max Wind Speed 15 mph    
Max Gust Speed 23 mph    
Visibility 8 miles    
Events Fog , Rain    
T = Trace of Precipitation, MM = Missing Value Source: NWS Daily Summary

Daily Weather History Graph

Daily Weather History Graph

Search for Another Location

Airport:

Trip Planner

Search our weather history database for the weather conditions in past years. The results will help you decide how hot, cold, wet, or windy it might be!

Date:

Astronomy

Sep. 26, 2012 Rise Set
Actual Time 7:29 AM EDT 7:27 PM EDT
Civil Twilight 7:02 AM EDT 7:54 PM EDT
Nautical Twilight 6:31 AM EDT 8:25 PM EDT
Astronomical Twilight 5:59 AM EDT 8:56 PM EDT
Moon 5:25 PM EDT (9/26) 3:55 AM EDT (9/26)
Length of Visible Light 12h 51m
Length of Day
11h 57m
Waxing Gibbous, 88% of the Moon is Illuminated
Sep 26
Waxing Gibbous
Sep 29
Full
Oct 8
Last Quarter
Oct 15
New
Oct 21
First Quarter

Hourly Weather History & Observations

Time (EDT) Temp. Dew Point Humidity Pressure Visibility Wind Dir Wind Speed Gust Speed Precip Events Conditions
12:35 AM 62.6 °F 62.1 °F 98% 29.98 in 10.0 mi SSW 3.5 mph - N/A Rain Light Rain
1:15 AM 60.8 °F 60.8 °F 100% 30.00 in 10.0 mi SW 4.6 mph - N/A   Overcast
1:35 AM 62.6 °F 62.6 °F 100% 30.01 in 10.0 mi WSW 3.5 mph - N/A   Overcast
1:55 AM 62.6 °F 62.6 °F 100% 30.00 in 10.0 mi SSW 5.8 mph - N/A Rain Light Rain
2:15 AM 65.3 °F 64.9 °F 99% 30.01 in 10.0 mi WSW 8.1 mph - N/A Rain Light Rain
2:35 AM 65.3 °F 64.8 °F 98% 30.00 in 10.0 mi SW 3.5 mph - N/A Rain Light Rain
2:55 AM 64.6 °F 64.2 °F 99% 29.99 in 10.0 mi Calm Calm - N/A   Overcast
3:15 AM 62.6 °F 62.6 °F 100% 29.99 in 10.0 mi Calm Calm - N/A   Mostly Cloudy
3:35 AM 60.8 °F 60.8 °F 100% 30.01 in 7.0 mi SW 4.6 mph - N/A   Overcast
4:15 AM 61.5 °F 61.5 °F 100% 30.00 in 10.0 mi SSW 4.6 mph - N/A   Scattered Clouds
4:35 AM 61.9 °F 61.7 °F 99% 30.00 in 10.0 mi SSW 5.8 mph - N/A   Scattered Clouds
4:55 AM 61.5 °F 61.2 °F 99% 30.00 in 10.0 mi Calm Calm - N/A   Scattered Clouds
5:15 AM 60.3 °F 60.3 °F 100% 30.00 in 10.0 mi Calm Calm - N/A   Mostly Cloudy
5:35 AM 60.1 °F 60.1 °F 100% 30.01 in 10.0 mi SSW 8.1 mph - N/A   Mostly Cloudy
5:55 AM 61.0 °F 60.8 °F 99% 30.02 in 10.0 mi SSW 6.9 mph - N/A   Scattered Clouds
6:15 AM 62.4 °F 61.9 °F 98% 30.03 in 10.0 mi SSW 8.1 mph - N/A   Mostly Cloudy
6:35 AM 62.6 °F 61.7 °F 97% 30.03 in 10.0 mi SSW 9.2 mph - N/A   Overcast
6:55 AM 62.4 °F 61.9 °F 98% 30.03 in 10.0 mi SSW 5.8 mph - N/A   Overcast
7:15 AM 61.5 °F 61.2 °F 99% 30.04 in 10.0 mi SW 3.5 mph - N/A   Overcast
7:35 AM 60.8 °F 60.8 °F 100% 30.05 in 10.0 mi SW 5.8 mph - N/A   Overcast
7:55 AM 60.8 °F 60.8 °F 100% 30.05 in 10.0 mi South 5.8 mph - N/A   Light Drizzle
8:35 AM 62.4 °F 62.4 °F 100% 30.06 in 10.0 mi SSW 8.1 mph - N/A   Drizzle
8:55 AM 62.6 °F 62.6 °F 100% 30.07 in 10.0 mi SSW 6.9 mph - N/A   Light Drizzle
9:15 AM 62.6 °F 62.6 °F 100% 30.08 in 10.0 mi SSW 9.2 mph - N/A Rain Rain
9:35 AM 62.6 °F 62.6 °F 100% 30.08 in 10.0 mi SW 12.7 mph - N/A   Overcast
9:55 AM 62.6 °F 62.6 °F 100% 30.08 in 10.0 mi SW 12.7 mph - N/A Rain Light Rain
10:15 AM 65.1 °F 64.8 °F 99% 30.06 in 10.0 mi SSW 8.1 mph - N/A Rain Light Rain
10:35 AM 65.3 °F 64.9 °F 99% 30.06 in 10.0 mi SSW 10.4 mph - N/A Rain Light Rain
10:55 AM 65.3 °F 64.9 °F 99% 30.04 in 10.0 mi South 8.1 mph - N/A Rain Light Rain
11:15 AM 67.6 °F 66.7 °F 97% 30.04 in 10.0 mi SSW 9.2 mph - N/A   Scattered Clouds
11:35 AM 67.6 °F 66.2 °F 95% 30.05 in 10.0 mi SW 10.4 mph - N/A   Scattered Clouds
12:35 PM 67.6 °F 65.3 °F 92% 30.08 in 10.0 mi SW 11.5 mph 23.0 mph N/A   Mostly Cloudy
12:55 PM 68.0 °F 65.1 °F 90% 30.07 in 10.0 mi SW 13.8 mph 18.4 mph N/A   Scattered Clouds
1:15 PM 72.7 °F 67.6 °F 84% 30.07 in 10.0 mi SW 15.0 mph 21.9 mph N/A   Scattered Clouds
1:35 PM 72.7 °F 68.2 °F 86% 30.07 in 10.0 mi SW 15.0 mph 21.9 mph N/A   Mostly Cloudy
1:55 PM 72.7 °F 68.4 °F 86% 30.06 in 10.0 mi SW 10.4 mph - N/A   Overcast
2:15 PM 72.7 °F 67.6 °F 84% 30.06 in 10.0 mi WSW 12.7 mph - N/A   Overcast
2:35 PM 72.7 °F 67.3 °F 83% 30.06 in 10.0 mi SW 9.2 mph - N/A   Overcast
2:55 PM 72.7 °F 66.6 °F 81% 30.08 in 10.0 mi WSW 13.8 mph 20.7 mph N/A   Overcast
3:15 PM 72.9 °F 66.6 °F 81% 30.09 in 10.0 mi WSW 15.0 mph - N/A   Overcast
3:35 PM 70.2 °F 67.3 °F 91% 30.03 in 4.0 mi Calm Calm - N/A Rain Light Rain
3:55 PM 70.7 °F 68.9 °F 94% 30.06 in 10.0 mi SSW 8.1 mph - N/A   Scattered Clouds
4:15 PM 72.7 °F 70.2 °F 92% 30.06 in 10.0 mi SW 6.9 mph - N/A   Clear
4:35 PM 72.7 °F 69.8 °F 91% 30.05 in 10.0 mi SW 5.8 mph - N/A   Clear
4:55 PM 72.7 °F 69.4 °F 90% 30.06 in 10.0 mi WSW 4.6 mph - N/A   Clear
5:15 PM 72.7 °F 69.8 °F 91% 30.07 in 10.0 mi WSW 4.6 mph - N/A   Scattered Clouds
5:35 PM 72.7 °F 70.2 °F 92% 30.08 in 10.0 mi WSW 5.8 mph - N/A   Scattered Clouds
6:15 PM 70.2 °F 68.9 °F 96% 30.08 in 10.0 mi WSW 3.5 mph - N/A   Overcast
6:35 PM 70.2 °F 68.9 °F 96% 30.08 in 10.0 mi WSW 3.5 mph - N/A   Mostly Cloudy
6:55 PM 68.7 °F 67.8 °F 97% 30.08 in 4.0 mi West 3.5 mph - N/A Rain Light Rain
7:15 PM 67.6 °F 67.6 °F 100% 30.08 in 7.0 mi Calm Calm - N/A   Mostly Cloudy
7:35 PM 67.6 °F 67.6 °F 100% 30.08 in 5.0 mi Calm Calm - N/A   Mostly Cloudy
7:55 PM 67.6 °F 67.6 °F 100% 30.08 in 2.5 mi Calm Calm - N/A   Mostly Cloudy
8:15 PM 67.6 °F 67.6 °F 100% 30.08 in 2.5 mi Calm Calm - N/A   Scattered Clouds
8:35 PM 67.6 °F 67.6 °F 100% 30.08 in 2.5 mi Calm Calm - N/A   Scattered Clouds
8:55 PM 65.3 °F 65.3 °F 100% 30.08 in 0.5 mi NNW 4.6 mph - N/A Fog Fog
9:35 PM 65.3 °F 65.3 °F 100% 30.09 in 2.5 mi Calm Calm - N/A   Overcast
9:55 PM 65.3 °F 65.3 °F 100% 30.10 in 2.0 mi Calm Calm - N/A   Overcast
10:15 PM 65.3 °F 65.3 °F 100% 30.10 in 1.5 mi Calm Calm - N/A   Mostly Cloudy
10:35 PM 63.3 °F 63.3 °F 100% 30.11 in 1.2 mi Calm Calm - N/A   Overcast
10:55 PM 62.6 °F 62.6 °F 100% 30.11 in 1.8 mi Calm Calm - N/A   Overcast
11:15 PM 62.6 °F 62.6 °F 100% 30.11 in 2.5 mi Calm Calm - N/A   Overcast
11:35 PM 64.4 °F 64.4 °F 100% 30.12 in 2.0 mi Calm Calm - N/A   Overcast
11:55 PM 65.3 °F 65.3 °F 100% 30.12 in 2.0 mi Calm Calm - N/A   Overcast